This is the latest recevied weather packets stored in our database for station/object KG5TTF. If no packets are shown the sender has not sent any weather packets the latest 10 day(s).
| Time | Temp. | Humidity | Pressure | Rain* | Wind** | Luminosity | Snow |
|---|---|---|---|---|---|---|---|
| 1777581961 | 2.22° C | 97% | 1023.5 hPa | 0 mm | - | 88 W/m² | - |
| 1777581657 | 2.78° C | 97% | 1023.5 hPa | 0 mm | - | 79 W/m² | - |
| 1777581350 | 2.78° C | 97% | 1023.5 hPa | 0 mm | - | 61 W/m² | - |
| 1777581046 | 2.78° C | 97% | 1023.6 hPa | 1.27 mm | - | 69 W/m² | - |
| 1777580745 | 2.78° C | 97% | 1023.6 hPa | 1.27 mm | - | 68 W/m² | - |
| 1777580442 | 2.22° C | 97% | 1023.6 hPa | 0 mm | - | 69 W/m² | - |
| 1777580137 | 2.22° C | 97% | 1023.7 hPa | 0 mm | - | 154 W/m² | - |
| 1777579834 | 2.78° C | 97% | 1023.8 hPa | 0 mm | - | 92 W/m² | - |
| 1777579533 | 2.78° C | 97% | 1023.5 hPa | 0 mm | - | 156 W/m² | - |
| 1777579232 | 2.22° C | 97% | 1023.8 hPa | 0 mm | - | 182 W/m² | - |
| 1777578928 | 2.22° C | 97% | 1023.8 hPa | 0 mm | - | 118 W/m² | - |
| 1777578623 | 2.22° C | 97% | 1023.8 hPa | 0 mm | - | 94 W/m² | - |
| 1777578323 | 2.22° C | 97% | 1023.7 hPa | 0 mm | - | 103 W/m² | - |
| 1777578019 | 2.22° C | 97% | 1023.8 hPa | 0 mm | - | 113 W/m² | - |
| 1777577715 | 2.22° C | 97% | 1023.8 hPa | 0 mm | - | 136 W/m² | - |
| 1777577412 | 2.22° C | 97% | 1024.1 hPa | 0 mm | - | 95 W/m² | - |
| 1777577108 | 2.22° C | 97% | 1023.8 hPa | 0 mm | - | 75 W/m² | - |
| 1777576804 | 2.22° C | 96% | 1024.1 hPa | 0 mm | - | 74 W/m² | - |
| 1777576504 | 2.22° C | 96% | 1023.9 hPa | 0 mm | - | 68 W/m² | - |
| 1777576200 | 2.22° C | 96% | 1023.9 hPa | 1.78 mm | - | 69 W/m² | - |
| 1777575896 | 2.22° C | 95% | 1023.8 hPa | 1.78 mm | - | 86 W/m² | - |
| 1777575593 | 2.22° C | 95% | 1024.1 hPa | 0 mm | - | 62 W/m² | - |
| 1777575289 | 2.22° C | 95% | 1023.9 hPa | 0 mm | - | 61 W/m² | - |
| 1777574985 | 2.22° C | 95% | 1023.8 hPa | 0 mm | - | 109 W/m² | - |
| 1777574681 | 2.22° C | 94% | 1023.9 hPa | 0 mm | - | 80 W/m² | - |
* Rain latest hour (hover to see other rain measurements)
** Current wind speed in m/s (hover to see current wind gust speed)